SL-16 DEB, 39711

Orbit data source: Space-Track

SL-16 DEB, 39711 is space debris in LEO originally from a launch on Fri, 25 Dec 1992 UTC launched from the Tyuratam Missile And Space Complex (TTMTR). Debris objects in space refer to the collection of defunct objects orbiting the Earth. Examples of debris include non-operational satellites, rocket bodies, and fragments generated from explosions, collisions, or faulty payload assembly.

Loading next visibility...
Identifier
39711, 1992-093KB
Orbit
LEO
Country
Flag of CISCIS
Related business
Manufacturer
Unknown
Mission
Spacecraft
Bus & Motor
Unknown
Mass
Unknown
Launch date (UTC)
1992-12-25 (33 years ago)
Launch vehicle
Unknown
Launch site
Tyuratam Missile And Space Complex (TTMTR)
Object type
Payload
Rocket body
Debris
Shape & HBR
Unknown shape, 0.1 m
Radar Cross Section
Small (<0.1 m²)

Expand to show TLE details & history
Last TLE update: 4 days ago

TLE from 4 days ago
0 SL-16 DEB
1 39711U 92093KB  26169.51510830  .00000296  00000-0  21268-3 0  9990
2 39711  70.8352 259.8760 0094177 303.6643  55.5515 14.03020979622335
Epoch: 2026-06-18T12:21Z
TLE epoch observation values (Epoch: 2026-06-18T12:21:45.357Z)
Latitude
-0.00008°
Longitude
167.67965°
Altitude
847.481 km
Speed
7.449 km/s
True Right ascension
17h 19m 30s
True Declination
0° 00' 00"
Sunlit
Object was in full shadow at epoch
Visualization orbit readout
Latitude
Unknown
Longitude
Unknown
Altitude
Unknown
Speed
Unknown
Apparent Right ascension
Unknown
Apparent Declination
Unknown
Sunlit
N/A
Visualization observer readout
Local Sidereal Time
05:33:16
Azimuth
Unknown
Elevation
Unknown
Doppler factor
Unknown
Orbital elements
Apogee altitude
949.673 km
Perigee altitude
812.938 km
Semi-major axis
7,259.442 km
Eccentricity
0.00942
Inclination
70.8352°
RAAN
259.876°
Arg. of periapsis
303.6643°
True anomaly
56.44736°
Mean anomaly
55.5515°
Eccentric anomaly
55.99884°
Mean motion
3.50904 °/min
Orbital period
102.59 mins
BSTAR
0.00021268
Loading maneuver chart data...
Computing Atmospheric mass density...
Loading historical data...
Loading historical data...
Loading historical data...
Loading historical data...
Loading historical data...
Loading historical data...
Loading historical data...

Documentation

Showing up to 5 results
|